Regional Weather Roundup
Issued by NWS

Home | Current Version | Previous Version | Graphics & Text | Print | Product List | Glossary On
Versions: 1 2 3 4 5 6 7 8 9 10 11 12 13 14 15 16 17 18 19 20 21 22 23 24 25 26 27 28
000
ASUS45 KSLC 051910
RWRUT

UTAH REGIONAL WEATHER ROUNDUP
NATIONAL WEATHER SERVICE SALT LAKE CITY UT
1200 PM MST MON DEC 05 2016

UTZ001>011-023>025-052000-

NORTHERN UTAH

CITY           SKY/WX    TMP DP  RH WIND       PRES   REMARKS
BRIGHAM CITY     N/A     30   5  34 CALM      30.06F
HILL AFB       SUNNY     27   7  42 NW10      30.04F WCI  17
LOGAN          SUNNY    N/A N/A N/A VRB6      30.05F
OGDEN          SUNNY     30  11  45 NW10      30.05S WCI  21
SALT LAKE CITY MOSUNNY   32   9  38 N14       30.06S WCI  22
TOOELE VALLEY  CLOUDY    32  14  47 N8        30.07F WCI  25
WENDOVER       CLOUDY    32   7  34 SE9       30.07F WCI  24
HEBER CITY     CLOUDY    28  -4  24 N18G25    29.94S WCI  16
WEST JORDAN    MOSUNNY   29  15  55 N6G25     30.05S WCI  23

$$

UTZ011>015-024>027-052000-

CENTRAL/NORTHEAST UTAH

CITY           SKY/WX    TMP DP  RH WIND       PRES   REMARKS
PROVO AIRPORT  PTSUNNY   30  12  47 NW10      30.06S WCI  21
MOAB/CANYONLAN SUNNY     43  17  35 W12       29.87F
DELTA          CLOUDY    32   0  25 NW13      30.05F WCI  22
PRICE          MOSUNNY   34  10  37 NW20G26   29.89F WCI  23
ROOSEVELT      SUNNY     37   1  22 W23G36    29.91S WCI  26
VERNAL         CLOUDY    38   3  23 SW16G26   29.84F WCI  29

$$

UTZ013>016-019>022-027-052000-

SOUTHERN UTAH

CITY           SKY/WX    TMP DP  RH WIND       PRES   REMARKS
BRYCE CANYON   SUNNY     40   7  25 NW22G30   29.91F WCI  30
CEDAR CITY     SUNNY     43  20  39 NW10      29.97S
MILFORD        SUNNY     38  12  34 N21       30.02S WCI  28
ST GEORGE      MOCLDY    45  18  33 CALM      29.97F
HANKSVILLE     SUNNY     41  18  38 S3        29.92F
KANAB          SUNNY     48  18  29 CALM      29.96F
BLANDING       SUNNY     40  18  40 S5        29.95F

$$

REGIONAL REPORTS     COLORADO/ARIZONA

CITY           SKY/WX    TMP DP  RH WIND       PRES   REMARKS
CRAIG, CO      CLOUDY    28   8  43 NW15      29.86R WCI  16
GRAND JUNCTION CLOUDY    42  22  44 W7        29.84F
RIFLE, CO      SUNNY     41  19  41 W13G20    29.80F
MONTROSE, CO   CLOUDY    40  17  39 N12       29.85F WCI  33
CORTEZ, CO     SUNNY     47  18  31 CALM      29.88F
COLORADO CITY    N/A     52  14  22 NW6       29.96F
PAGE, AZ       SUNNY     45  15  30 CALM      29.88F
GRAND CANYON   SUNNY     45  16  31 W10       29.96F
KINGMAN, AZ    MOSUNNY   58   3  11 SW8       29.95F
FLAGSTAFF, AZ  SUNNY     44  13  28 SW12      29.98F

$$

REGIONAL REPORTS    NEVADA/IDAHO/WYOMING

CITY           SKY/WX    TMP DP  RH WIND       PRES   REMARKS
LAS VEGAS, NV  PTSUNNY   53  16  23 E5        29.94F
ELY, NY        PTSUNNY   39  19  44 NW9       29.98F WCI  33
ELKO, NV       CLOUDY    31   6  35 S5        30.05F WCI  26
POCATELLO, ID  PTSUNNY   23  16  74 SW22      30.06S WCI   8
BURLEY, ID     SUNNY     25  15  66 SW17      30.08F WCI  12
FORT BRIDGER,    N/A     21   0  39 W12       29.94F WCI   9
EVANSTON, WY   SUNNY     19  -6  33 W16       29.91F WCI   4
ROCK SPRINGS,  SUNNY     18   3  52 W24G31    29.87F WCI   0

$$




USA.gov is the U.S. government's official web portal to all federal, state and local government web resources and services.